Location: Fort Wayne
(41.1310°N, 85.1290°W)
Time: 20:37:34
(UTC-04:00)

OPAL - Visible Passes

Search period start: 24 October 2014 00:00
Search period end: 02 November 2014 23:00
Orbit: 744 x 797 km, 100.2° (Epoch: 24 October)

Date Brightness Start Highest point End Pass type
(mag) Time Alt. Az. Time Alt. Az. Time Alt. Az.
24 Oct 9.3 05:05:03 10° SE 05:09:29 30° ENE 05:13:52 10° N visible
24 Oct 8.1 06:43:35 10° SSW 06:48:15 34° W 06:52:53 10° NW visible
24 Oct 10.2 20:33:10 10° NNW 20:36:17 17° WNW 20:39:22 10° W visible
25 Oct 10.2 04:31:49 10° E 04:34:38 15° ENE 04:37:26 10° NNE visible
25 Oct 7.4 06:07:46 10° S 06:12:54 75° WSW 06:18:01 10° NNW visible
25 Oct 9.1 19:56:56 10° N 20:01:23 34° WNW 20:05:48 10° SW visible
26 Oct 8.3 05:32:47 10° SE 05:37:45 51° ENE 05:42:40 10° N visible
26 Oct 8.8 07:13:15 10° SW 07:16:52 19° W 07:20:29 10° NW visible
26 Oct 7.7 19:21:21 10° NNE 19:26:19 74° WNW 19:31:14 10° SSW visible
27 Oct 9.5 04:58:38 10° ESE 05:02:45 25° ENE 05:06:50 10° N visible
27 Oct 7.9 06:36:33 10° S 06:41:24 41° W 06:46:13 10° NNW visible
27 Oct 10.0 20:26:00 10° NNW 20:29:34 20° WNW 20:33:06 10° WSW visible
28 Oct 10.4 04:25:56 10° E 04:27:57 12° ENE 04:29:58 10° NNE visible
28 Oct 7.4 06:00:57 10° SSE 06:06:06 90° WSW 06:11:12 10° NNW visible
28 Oct 8.8 19:49:59 10° N 19:54:37 41° WNW 19:59:14 10° SW visible
29 Oct 8.6 05:26:10 10° SE 05:30:58 42° ENE 05:35:44 10° N visible
29 Oct 8.6 07:05:56 10° SSW 07:09:59 23° W 07:14:00 10° NW visible
29 Oct 7.5 19:14:30 10° NNE 19:19:29 90° WSW 19:24:26 10° SSW visible
29 Oct 10.4 20:55:55 10° NW 20:57:37 12° WNW 20:59:19 10° WNW visible
30 Oct 9.8 04:52:18 10° ESE 04:56:02 21° ENE 04:59:44 10° NNE visible
30 Oct 7.6 06:29:35 10° S 06:34:33 50° WSW 06:39:29 10° NNW visible
30 Oct 9.7 20:18:54 10° N 20:22:49 24° WNW 20:26:44 10° WSW visible
31 Oct 10.6 04:21:11 10° NE 04:21:17 10° NE 04:21:22 10° NE visible
31 Oct 7.6 05:54:12 10° SSE 05:59:17 75° ENE 06:04:21 10° NNW visible
31 Oct 9.2 07:36:27 10° WSW 07:38:40 13° W 07:40:52 10° WNW visible
31 Oct 8.4 19:43:03 10° N 19:47:50 50° WNW 19:52:35 10° SW visible
01 Nov 8.9 05:19:37 10° SE 05:24:12 35° ENE 05:28:45 10° N visible
01 Nov 8.3 06:58:44 10° SSW 07:03:05 28° W 07:07:26 10° NW visible
01 Nov 7.4 19:07:41 10° NNE 19:12:39 74° ESE 19:17:35 10° S visible
01 Nov 10.3 20:48:22 10° NNW 20:50:55 14° WNW 20:53:28 10° W visible
02 Nov 10.0 03:46:03 10° E 03:49:18 17° ENE 03:52:33 10° NNE visible
02 Nov 7.4 05:22:39 10° S 05:27:42 62° WSW 05:32:43 10° NNW visible
02 Nov 9.4 19:11:51 10° N 19:16:04 29° WNW 19:20:16 10° WSW visible
